Weather in Devich'ye

Russia / Bryansk Oblast     52°46′33″N   34°40′47″E
temp.,
°C
wind,
m/s
gust,
m/s
humid.,
%
clouds,
%
prec.,
mm/h
press.,
hPa
HPBL,
m
5 august, thu
thu500:00+15ese227110 0.0 101812
03:00+15se3466100 0.0 101762
06:00+15sse3569100 0.0 1016106
09:00+16ese4773100 0.1 1016164
12:00+19se5871100 0.2 1015399
15:00+25s6747100 0.2 10131388
18:00+24se3656100 0.0 1011210
21:00+19sse61283100 0.7 1011266
6 august, fri
fri600:00+16s4109563 0.3 1011223
03:00+18sse3118967 0.6 1011312
06:00+17se4118563 0.1 1010225
09:00+21sse51068100 0.5 1009389
12:00+27sse5844100 0.0 1008910
15:00+30sse683856 0.0 10061937
18:00+29se48448 0.0 1005704
21:00+22wnw71267100 0.0 1006415
7 august, sat
sat700:00+18s0188100 0.0 100711
03:00+18s2285100 0.0 100715
06:00+18se4129097 1.6 1006343
09:00+21ssw61281100 2.4 1007864
12:00+24s5664100 0.3 10071154
15:00+24sw4469100 0.5 1008944
18:00+25sw4457100 0.2 10091295
21:00+18wnw386797 0.2 1011169
8 august, sun
sun800:00+15nw2284100 0.0 101338
03:00+13nnw229129 0.0 101428
06:00+13n11870 0.0 101411
09:00+20wnw22560 0.0 1015419
12:00+24wsw22440 0.0 10151369
15:00+27sw23408 0.0 10152008
18:00+26w234343 0.0 10151906
21:00+20nw2263100 0.0 101626
9 august, mon
mon900:00+17n227694 0.0 101715
03:00+16n11815 0.0 101811
06:00+16e11816 0.0 101811
09:00+23s115796 0.0 1018336
12:00+27ssw32375 0.0 10181300
15:00+29wsw23305 0.0 10171703
18:00+29wsw113572 0.0 10171331
21:00+22s2251100 0.0 101813